COSMOS 2251 DEB, 35476

Orbit data source: Space-Track

COSMOS 2251 DEB, 35476 is space debris in LEO originally from a launch on Wed, 16 Jun 1993 UTC launched from the Plesetsk Missile And Space Complex (PKMTR). The debris from Iridium 33, an American commercial communications satellite, has been tracked extensively since its accidental collision with the defunct Russian satellite Cosmos 2251 in 2009. This event, occurring at high speed in low Earth orbit (LEO), generated thousands of pieces of space debris, significantly increasing the risk of further collisions. The Iridium 33 debris cloud has impacted space traffic management and orbital debris mitigation strategies, making it a subject of ongoing study in space situational awareness.

Loading next visibility...
Identifier
35476, 1993-036ALW
Orbit
LEO
Country
Flag of CISCIS
Related business
Manufacturer
Unknown
Mission
Spacecraft
Bus & Motor
Unknown
Mass
Unknown
Launch date (UTC)
1993-06-16 (32 years ago)
Launch vehicle
Unknown
Launch site
Plesetsk Missile And Space Complex (PKMTR)
Object type
Payload
Rocket body
Debris
Shape & HBR
Unknown shape, 0.1 m
Radar Cross Section
Small (<0.1 m²)

Expand to show TLE details & history
Last TLE update: 2 days ago

TLE from 2 days ago
0 COSMOS 2251 DEB
1 35476U 93036ALW 25306.99787166  .00012783  00000-0  19340-2 0  9995
2 35476  73.9767 138.8521 0019082 143.5409   8.9592 14.74138745873016
Epoch: 2025-11-02T23:56Z
TLE epoch observation values (Epoch: 2025-11-02T23:56:56.111Z)
Latitude
26.35756°
Longitude
-91.02329°
Altitude
637.568 km
Speed
7.549 km/s
True Right ascension
20h 42m 51s
True Declination
26° 13' 07"
Sunlit
Object was in daylight at epoch
Visualization orbit readout
Latitude
Unknown
Longitude
Unknown
Altitude
Unknown
Speed
Unknown
Apparent Right ascension
Unknown
Apparent Declination
Unknown
Sunlit
N/A
Visualization observer readout
Local Sidereal Time
15:31:12
Azimuth
Unknown
Elevation
Unknown
Doppler factor
Unknown
Orbital elements
Apogee altitude
658.876 km
Perigee altitude
632.071 km
Semi-major axis
7,023.611 km
Eccentricity
0.00191
Inclination
73.9767°
RAAN
138.8521°
Arg. of periapsis
143.5409°
True anomaly
8.99333°
Mean anomaly
8.9592°
Eccentric anomaly
8.97626°
Mean motion
3.68725 °/min
Orbital period
97.63 mins
BSTAR
0.001934

Documentation

Showing up to 5 results
|